| time (UTC) | temp F | wind direction | speed MPH | gust MPH | rain 1hr in | rain 24hr in | rain mn in | humidity % | barometer mb |
| 20260502233000 | 59 | 241 | 4.0 | 4.0 | 0.00 | 0.00 | 0.00 | 82 | 1013.4 |
| 20260502232458 | 59 | 166 | 2.0 | 3.0 | 0.00 | 0.00 | 0.00 | 82 | 1013.4 |
| 20260502231956 | 59 | 237 | 2.0 | 2.0 | 0.00 | 0.00 | 0.00 | 82 | 1013.4 |
| 20260502231453 | 59 | 165 | 1.0 | 1.0 | 0.00 | 0.00 | 0.00 | 83 | 1013.4 |
| 20260502230951 | 59 | 201 | 2.0 | 3.0 | 0.00 | 0.00 | 0.00 | 82 | 1013.4 |
| 20260502230448 | 59 | 36 | 0.0 | 0.0 | 0.00 | 0.00 | 0.00 | 82 | 1013.4 |
| 20260502225946 | 59 | 215 | 2.0 | 2.0 | 0.00 | 0.00 | 0.00 | 82 | 1013.7 |
| 20260502225444 | 59 | 206 | 2.0 | 3.0 | 0.00 | 0.00 | 0.00 | 81 | 1013.7 |
| 20260502224942 | 61 | 183 | 2.0 | 2.0 | 0.00 | 0.00 | 0.00 | 81 | 1013.7 |
| 20260502224439 | 59 | 134 | 2.0 | 4.0 | 0.00 | 0.00 | 0.00 | 82 | 1014.0 |
| 20260502223937 | 61 | 178 | 2.0 | 6.0 | 0.00 | 0.00 | 0.00 | 82 | 1014.0 |
| 20260502223434 | 61 | 218 | 2.0 | 5.0 | 0.00 | 0.00 | 0.00 | 82 | 1014.0 |
| 20260502222932 | 61 | 248 | 0.0 | 1.0 | 0.00 | 0.00 | 0.00 | 82 | 1014.0 |
| 20260502222429 | 61 | 187 | 1.0 | 2.0 | 0.00 | 0.00 | 0.00 | 83 | 1014.0 |
| 20260502221927 | 61 | 195 | 4.0 | 6.0 | 0.00 | 0.00 | 0.00 | 82 | 1014.0 |
| 20260502220922 | 61 | 79 | 2.0 | 2.0 | 0.00 | 0.00 | 0.00 | 82 | 1014.0 |
| 20260502220420 | 61 | 193 | 3.0 | 3.0 | 0.00 | 0.00 | 0.00 | 82 | 1014.0 |
| 20260502215917 | 61 | 216 | 4.0 | 7.0 | 0.00 | 0.00 | 0.06 | 81 | 1014.0 |
| 20260502215415 | 61 | 225 | 2.0 | 3.0 | 0.00 | 0.00 | 0.06 | 81 | 1014.0 |
| 20260502214912 | 61 | 219 | 3.0 | 4.0 | 0.00 | 0.00 | 0.06 | 81 | 1013.7 |
| 20260502214410 | 61 | 189 | 3.0 | 4.0 | 0.00 | 0.00 | 0.06 | 81 | 1013.7 |
| 20260502213908 | 61 | 106 | 1.0 | 2.0 | 0.00 | 0.00 | 0.06 | 82 | 1013.7 |
| 20260502213405 | 61 | 188 | 2.0 | 2.0 | 0.00 | 0.00 | 0.06 | 82 | 1014.0 |
| 20260502212401 | 61 | 186 | 1.0 | 1.0 | 0.00 | 0.00 | 0.06 | 82 | 1014.0 |
| 20260502211858 | 61 | 264 | 2.0 | 3.0 | 0.00 | 0.00 | 0.06 | 82 | 1014.0 |
| 20260502211355 | 61 | 172 | 2.0 | 4.0 | 0.00 | 0.00 | 0.06 | 80 | 1014.0 |
| 20260502210853 | 61 | 200 | 3.0 | 4.0 | 0.00 | 0.00 | 0.06 | 79 | 1014.4 |
| 20260502210350 | 61 | 180 | 2.0 | 3.0 | 0.00 | 0.00 | 0.06 | 78 | 1014.0 |
| 20260502205848 | 61 | 244 | 2.0 | 3.0 | 0.00 | 0.00 | 0.06 | 77 | 1014.0 |
| 20260502205346 | 63 | 188 | 3.0 | 4.0 | 0.00 | 0.00 | 0.06 | 76 | 1014.0 |
| 20260502204844 | 63 | 215 | 2.0 | 3.0 | 0.00 | 0.00 | 0.06 | 75 | 1014.0 |
| 20260502204341 | 63 | 279 | 1.0 | 2.0 | 0.00 | 0.00 | 0.06 | 74 | 1014.0 |
| 20260502203839 | 63 | 220 | 2.0 | 3.0 | 0.00 | 0.00 | 0.06 | 72 | 1014.0 |
| 20260502203336 | 63 | 270 | 1.0 | 2.0 | 0.00 | 0.00 | 0.06 | 73 | 1014.0 |
| 20260502201829 | 63 | 189 | 2.0 | 2.0 | 0.00 | 0.00 | 0.06 | 72 | 1014.4 |
| 20260502201326 | 63 | 193 | 2.0 | 3.0 | 0.00 | 0.00 | 0.06 | 72 | 1014.4 |
| 20260502200824 | 63 | 357 | 0.0 | 0.0 | 0.00 | 0.00 | 0.06 | 73 | 1014.4 |
| 20260502200322 | 63 | 247 | 2.0 | 2.0 | 0.00 | 0.00 | 0.06 | 73 | 1014.4 |
| 20260502195819 | 63 | 208 | 2.0 | 3.0 | 0.00 | 0.00 | 0.06 | 73 | 1014.4 |
| 20260502195317 | 63 | 222 | 2.0 | 2.0 | 0.00 | 0.00 | 0.06 | 74 | 1014.4 |
| 20260502194815 | 63 | 243 | 3.0 | 3.0 | 0.00 | 0.00 | 0.06 | 74 | 1014.4 |
| 20260502193810 | 64 | 192 | 2.0 | 3.0 | 0.00 | 0.00 | 0.06 | 75 | 1014.4 |
| 20260502193308 | 63 | 254 | 1.0 | 3.0 | 0.00 | 0.00 | 0.06 | 76 | 1014.4 |
| 20260502192305 | 64 | 287 | 3.0 | 3.0 | 0.00 | 0.00 | 0.06 | 83 | 1014.4 |
| 20260502191258 | 64 | 193 | 2.0 | 4.0 | 0.00 | 0.00 | 0.06 | 84 | 1014.4 |
| 20260502190756 | 64 | 266 | 4.0 | 6.0 | 0.00 | 0.00 | 0.06 | 82 | 1014.4 |
| 20260502185631 | 64 | 204 | 2.0 | 3.0 | 0.00 | 0.00 | 0.06 | 84 | 1014.4 |
| 20260502185129 | 64 | 262 | 1.0 | 2.0 | 0.00 | 0.00 | 0.06 | 83 | 1014.4 |
| 20260502184627 | 64 | 217 | 2.0 | 4.0 | 0.00 | 0.00 | 0.06 | 83 | 1014.4 |
| 20260502184124 | 64 | 218 | 2.0 | 6.0 | 0.00 | 0.00 | 0.06 | 84 | 1014.4 |
| 20260502183622 | 64 | 260 | 1.0 | 1.0 | 0.00 | 0.00 | 0.06 | 86 | 1014.0 |
| 20260502183120 | 64 | 181 | 1.0 | 1.0 | 0.00 | 0.00 | 0.06 | 85 | 1014.0 |
| 20260502182618 | 64 | 262 | 2.0 | 3.0 | 0.00 | 0.00 | 0.06 | 85 | 1014.0 |
| 20260502182115 | 64 | 168 | 1.0 | 1.0 | 0.00 | 0.00 | 0.06 | 84 | 1014.0 |
| 20260502181110 | 64 | 251 | 1.0 | 1.0 | 0.00 | 0.00 | 0.06 | 88 | 1014.0 |
| 20260502180608 | 64 | 346 | 0.0 | 0.0 | 0.00 | 0.00 | 0.06 | 88 | 1014.0 |
| 20260502180106 | 64 | 93 | 1.0 | 1.0 | 0.00 | 0.00 | 0.06 | 88 | 1014.0 |
| 20260502164029 | 64 | 113 | 2.0 | 2.0 | 0.02 | 0.00 | 0.06 | 87 | 1014.7 |
| 20260502163527 | 64 | 101 | 1.0 | 1.0 | 0.02 | 0.00 | 0.06 | 87 | 1014.7 |
| 20260502163025 | 64 | 69 | 1.0 | 1.0 | 0.02 | 0.00 | 0.06 | 87 | 1014.7 |
| 20260502162523 | 64 | 110 | 1.0 | 2.0 | 0.02 | 0.00 | 0.06 | 86 | 1015.0 |
| 20260502162020 | 64 | 151 | 3.0 | 4.0 | 0.02 | 0.00 | 0.06 | 86 | 1015.0 |
| 20260502161015 | 64 | 197 | 6.0 | 7.0 | 0.01 | 0.00 | 0.05 | 83 | 1015.4 |
| 20260502160513 | 64 | 109 | 5.0 | 10.0 | 0.00 | 0.00 | 0.04 | 80 | 1015.4 |
| 20260502151951 | 70 | 123 | 6.0 | 6.0 | 0.00 | 0.00 | 0.03 | 65 | 1015.4 |
| 20260502151449 | 70 | 114 | 6.0 | 6.0 | 0.00 | 0.00 | 0.03 | 64 | 1015.7 |
| 20260502150946 | 70 | 158 | 7.0 | 11.0 | 0.00 | 0.00 | 0.03 | 62 | 1016.1 |
| 20260502150443 | 70 | 139 | 7.0 | 9.0 | 0.00 | 0.00 | 0.03 | 62 | 1016.1 |
| 20260502130347 | 72 | 110 | 1.0 | 3.0 | 0.00 | 0.00 | 0.03 | 61 | 1017.8 |
| 20260502103158 | 66 | 156 | 4.0 | 5.0 | 0.00 | 0.00 | 0.03 | 57 | 1019.8 |
| 20260502102153 | 66 | 111 | 1.0 | 3.0 | 0.00 | 0.00 | 0.03 | 57 | 1019.8 |
| 20260502091024 | 64 | 44 | 2.0 | 2.0 | 0.00 | 0.00 | 0.03 | 54 | 1020.5 |
| 20260502070629 | 57 | 8 | 0.0 | 0.0 | 0.00 | 0.00 | 0.03 | 93 | 1021.1 |
| 20260502065626 | 55 | 168 | 3.0 | 3.0 | 0.00 | 0.00 | 0.03 | 93 | 1021.1 |
| 20260502065441 | 55 | 179 | 4.0 | 5.0 | 0.00 | 0.00 | 0.03 | 93 | 1021.1 |
| 20260502064551 | 55 | 214 | 2.0 | 3.0 | 0.00 | 0.00 | 0.03 | 93 | 1021.1 |
| 20260502063741 | 55 | 17 | 0.0 | 0.0 | 0.00 | 0.00 | 0.03 | 96 | 1020.8 |
| 20260502063648 | 55 | 354 | 0.0 | 1.0 | 0.00 | 0.00 | 0.03 | 95 | 1008.8 |
| 20260502062646 | 55 | 206 | 3.0 | 7.0 | 0.00 | 0.00 | 0.03 | 98 | 1008.8 |
| 20260502062425 | 55 | 179 | 2.0 | 3.0 | 0.00 | 0.00 | 0.03 | 99 | 1008.8 |
| 20260502052112 | 72 | 0 | 0.0 | 0.0 | 0.00 | 0.00 | 0.00 | 56 | 1020.4 |
| 20260502051112 | 72 | 0 | 0.0 | 0.0 | 0.00 | 0.00 | 0.00 | 57 | 1020.4 |
| 20260502045917 | 72 | 0 | 0.0 | 0.0 | 0.00 | 0.00 | 1.17 | 57 | 1020.3 |
| 20260502044916 | 71 | 0 | 0.0 | 0.0 | 0.00 | 0.00 | 1.17 | 57 | 1020.2 |